| time (UTC) | temp F | wind direction | speed MPH | gust MPH | rain 1hr in | rain 24hr in | rain mn in | humidity % | barometer mb |
| 20260508182558 | 87 | 67 | 4.0 | 13.0 | 0.00 | 0.00 | 0.00 | 64 | 1014.8 |
| 20260508182101 | 87 | 81 | 5.0 | 13.0 | 0.00 | 0.00 | 0.00 | 58 | 1014.9 |
| 20260508181607 | 87 | 55 | 3.0 | 11.0 | 0.00 | 0.00 | 0.00 | 64 | 1015.0 |
| 20260508181056 | 87 | 58 | 4.0 | 11.0 | 0.00 | 0.00 | 0.00 | 63 | 1015.0 |
| 20260508180559 | 87 | 79 | 5.0 | 11.0 | 0.00 | 0.00 | 0.00 | 60 | 1015.1 |
| 20260508180059 | 87 | 102 | 4.0 | 10.0 | 0.00 | 0.00 | 0.00 | 62 | 1015.2 |
| 20260508175556 | 87 | 79 | 5.0 | 11.0 | 0.00 | 0.00 | 0.00 | 62 | 1015.3 |
| 20260508175055 | 87 | 101 | 4.0 | 11.0 | 0.00 | 0.00 | 0.00 | 60 | 1015.3 |
| 20260508174603 | 87 | 112 | 5.0 | 11.0 | 0.00 | 0.00 | 0.00 | 60 | 1015.3 |
| 20260508174057 | 87 | 128 | 3.0 | 12.0 | 0.00 | 0.00 | 0.00 | 59 | 1015.4 |
| 20260508173556 | 87 | 65 | 4.0 | 12.0 | 0.00 | 0.00 | 0.00 | 59 | 1015.4 |
| 20260508173102 | 87 | 61 | 4.0 | 11.0 | 0.00 | 0.00 | 0.00 | 61 | 1015.5 |
| 20260508172556 | 87 | 54 | 5.0 | 11.0 | 0.00 | 0.00 | 0.00 | 61 | 1015.5 |
| 20260508172100 | 87 | 96 | 6.0 | 11.0 | 0.00 | 0.00 | 0.00 | 60 | 1015.5 |
| 20260508171558 | 88 | 92 | 4.0 | 11.0 | 0.00 | 0.00 | 0.00 | 59 | 1015.6 |
| 20260508171101 | 87 | 88 | 5.0 | 11.0 | 0.00 | 0.00 | 0.00 | 60 | 1015.6 |
| 20260508170559 | 87 | 56 | 4.0 | 11.0 | 0.00 | 0.00 | 0.00 | 58 | 1015.7 |
| 20260508165558 | 87 | 128 | 3.0 | 10.0 | 0.00 | 0.00 | 0.00 | 57 | 1015.7 |
| 20260508165058 | 87 | 115 | 3.0 | 10.0 | 0.00 | 0.00 | 0.00 | 57 | 1015.8 |
| 20260508164602 | 87 | 92 | 5.0 | 10.0 | 0.00 | 0.00 | 0.00 | 56 | 1015.8 |
| 20260508164059 | 87 | 109 | 5.0 | 10.0 | 0.00 | 0.00 | 0.00 | 57 | 1015.8 |
| 20260508163603 | 88 | 96 | 4.0 | 9.0 | 0.00 | 0.00 | 0.00 | 56 | 1015.9 |
| 20260508163104 | 88 | 78 | 3.0 | 9.0 | 0.00 | 0.00 | 0.00 | 56 | 1016.1 |
| 20260508162600 | 88 | 67 | 4.0 | 11.0 | 0.00 | 0.00 | 0.00 | 58 | 1016.1 |
| 20260508162101 | 89 | 119 | 4.0 | 11.0 | 0.00 | 0.00 | 0.00 | 60 | 1016.2 |
| 20260508161600 | 89 | 61 | 1.0 | 10.0 | 0.00 | 0.00 | 0.00 | 59 | 1016.1 |
| 20260508161058 | 89 | 110 | 4.0 | 10.0 | 0.00 | 0.00 | 0.00 | 58 | 1016.2 |
| 20260508160602 | 90 | 74 | 1.0 | 7.0 | 0.00 | 0.00 | 0.00 | 58 | 1016.2 |
| 20260508160100 | 89 | 39 | 3.0 | 7.0 | 0.00 | 0.00 | 0.00 | 57 | 1016.3 |
| 20260508155603 | 89 | 0 | 2.0 | 6.0 | 0.00 | 0.00 | 0.00 | 56 | 1016.5 |
| 20260508155100 | 89 | 73 | 1.0 | 5.0 | 0.00 | 0.00 | 0.00 | 56 | 1016.7 |
| 20260508154623 | 89 | 312 | 2.0 | 5.0 | 0.00 | 0.00 | 0.00 | 56 | 1016.7 |
| 20260508154057 | 89 | 27 | 1.0 | 7.0 | 0.00 | 0.00 | 0.00 | 51 | 1016.7 |
| 20260508153558 | 89 | 242 | 1.0 | 7.0 | 0.00 | 0.00 | 0.00 | 53 | 1016.6 |
| 20260508153100 | 88 | 62 | 0.0 | 6.0 | 0.00 | 0.00 | 0.00 | 53 | 1016.7 |
| 20260508152558 | 88 | 86 | 3.0 | 7.0 | 0.00 | 0.00 | 0.00 | 52 | 1016.6 |
| 20260508152057 | 88 | 46 | 2.0 | 7.0 | 0.00 | 0.00 | 0.00 | 53 | 1016.7 |
| 20260508151609 | 88 | 86 | 1.0 | 3.0 | 0.00 | 0.00 | 0.00 | 54 | 1016.6 |
| 20260508151101 | 88 | 0 | 0.0 | 5.0 | 0.00 | 0.00 | 0.00 | 57 | 1016.7 |
| 20260508150601 | 88 | 0 | 1.0 | 6.0 | 0.00 | 0.00 | 0.00 | 56 | 1016.7 |
| 20260508150101 | 88 | 267 | 1.0 | 6.0 | 0.00 | 0.00 | 0.00 | 58 | 1016.7 |
| 20260508145600 | 87 | 5 | 0.0 | 5.0 | 0.00 | 0.00 | 0.00 | 59 | 1016.8 |
| 20260508145058 | 87 | 9 | 0.0 | 5.0 | 0.00 | 0.00 | 0.00 | 58 | 1016.8 |
| 20260508144610 | 87 | 5 | 0.0 | 5.0 | 0.00 | 0.00 | 0.00 | 60 | 1016.8 |
| 20260508144058 | 86 | 0 | 1.0 | 5.0 | 0.00 | 0.00 | 0.00 | 60 | 1016.7 |
| 20260508143600 | 86 | 57 | 0.0 | 7.0 | 0.00 | 0.00 | 0.00 | 61 | 1016.6 |
| 20260508143109 | 86 | 9 | 3.0 | 7.0 | 0.00 | 0.00 | 0.00 | 61 | 1016.8 |
| 20260508142558 | 86 | 0 | 1.0 | 5.0 | 0.00 | 0.00 | 0.00 | 63 | 1016.8 |
| 20260508142101 | 85 | 281 | 0.0 | 5.0 | 0.00 | 0.00 | 0.00 | 64 | 1016.8 |
| 20260508141605 | 85 | 0 | 0.0 | 3.0 | 0.00 | 0.00 | 0.00 | 64 | 1016.7 |
| 20260508141059 | 85 | 0 | 0.0 | 5.0 | 0.00 | 0.00 | 0.00 | 65 | 1016.7 |
| 20260508140559 | 84 | 0 | 2.0 | 6.0 | 0.00 | 0.00 | 0.00 | 65 | 1016.7 |
| 20260508140101 | 84 | 360 | 0.0 | 6.0 | 0.00 | 0.00 | 0.00 | 65 | 1016.8 |
| 20260508135559 | 84 | 339 | 0.0 | 6.0 | 0.00 | 0.00 | 0.00 | 66 | 1016.8 |
| 20260508135058 | 83 | 352 | 1.0 | 6.0 | 0.00 | 0.00 | 0.00 | 66 | 1016.8 |
| 20260508134623 | 83 | 25 | 0.0 | 7.0 | 0.00 | 0.00 | 0.00 | 68 | 1016.7 |
| 20260508134058 | 83 | 248 | 1.0 | 7.0 | 0.00 | 0.00 | 0.00 | 68 | 1016.6 |
| 20260508133558 | 82 | 336 | 2.0 | 9.0 | 0.00 | 0.00 | 0.00 | 68 | 1016.6 |
| 20260508133104 | 82 | 0 | 2.0 | 9.0 | 0.00 | 0.00 | 0.00 | 68 | 1016.6 |
| 20260508132600 | 82 | 344 | 2.0 | 9.0 | 0.00 | 0.00 | 0.00 | 68 | 1016.6 |
| 20260508132059 | 81 | 360 | 0.0 | 5.0 | 0.00 | 0.00 | 0.00 | 69 | 1016.5 |
| 20260508131608 | 81 | 0 | 1.0 | 5.0 | 0.00 | 0.00 | 0.00 | 69 | 1016.5 |
| 20260508131100 | 80 | 0 | 1.0 | 4.0 | 0.00 | 0.00 | 0.00 | 70 | 1016.5 |
| 20260508130602 | 80 | 282 | 1.0 | 5.0 | 0.00 | 0.00 | 0.00 | 71 | 1016.5 |
| 20260508130058 | 79 | 0 | 0.0 | 5.0 | 0.00 | 0.00 | 0.00 | 72 | 1016.5 |
| 20260508125600 | 79 | 5 | 1.0 | 5.0 | 0.00 | 0.00 | 0.00 | 72 | 1016.5 |
| 20260508125101 | 78 | 0 | 0.0 | 6.0 | 0.00 | 0.00 | 0.00 | 73 | 1016.4 |
| 20260508124603 | 78 | 0 | 1.0 | 8.0 | 0.00 | 0.00 | 0.00 | 74 | 1016.3 |
| 20260508124101 | 77 | 19 | 1.0 | 8.0 | 0.00 | 0.00 | 0.00 | 75 | 1016.4 |
| 20260508123600 | 77 | 277 | 3.0 | 8.0 | 0.00 | 0.00 | 0.00 | 76 | 1016.3 |
| 20260508123101 | 76 | 333 | 1.0 | 8.0 | 0.00 | 0.00 | 0.00 | 79 | 1016.3 |
| 20260508122558 | 75 | 11 | 0.0 | 4.0 | 0.00 | 0.00 | 0.00 | 80 | 1016.2 |
| 20260508122058 | 75 | 0 | 1.0 | 8.0 | 0.00 | 0.00 | 0.00 | 81 | 1016.1 |
| 20260508121559 | 74 | 17 | 2.0 | 8.0 | 0.00 | 0.00 | 0.00 | 83 | 1016.1 |
| 20260508121059 | 74 | 0 | 1.0 | 8.0 | 0.00 | 0.00 | 0.00 | 84 | 1016.1 |
| 20260508120559 | 73 | 240 | 0.0 | 2.0 | 0.00 | 0.00 | 0.00 | 84 | 1016.1 |
| 20260508120100 | 73 | 0 | 0.0 | 0.0 | 0.00 | 0.00 | 0.00 | 85 | 1016.1 |
| 20260508115558 | 72 | 0 | 0.0 | 0.0 | 0.00 | 0.00 | 0.00 | 85 | 1015.9 |
| 20260508115058 | 72 | 0 | 0.0 | 0.0 | 0.00 | 0.00 | 0.00 | 85 | 1015.9 |
| 20260508114604 | 72 | 0 | 0.0 | 0.0 | 0.00 | 0.00 | 0.00 | 85 | 1015.8 |
| 20260508114100 | 71 | 0 | 0.0 | 0.0 | 0.00 | 0.00 | 0.00 | 84 | 1015.8 |
| 20260508113601 | 71 | 0 | 0.0 | 0.0 | 0.00 | 0.00 | 0.00 | 84 | 1015.8 |
| 20260508113058 | 71 | 0 | 0.0 | 0.0 | 0.00 | 0.00 | 0.00 | 84 | 1015.8 |
| 20260508112604 | 71 | 0 | 0.0 | 0.0 | 0.00 | 0.00 | 0.00 | 83 | 1015.7 |
| 20260508112058 | 71 | 0 | 0.0 | 0.0 | 0.00 | 0.00 | 0.00 | 83 | 1015.6 |
| 20260508111601 | 70 | 0 | 0.0 | 0.0 | 0.00 | 0.00 | 0.00 | 83 | 1015.5 |
| 20260508111100 | 70 | 0 | 0.0 | 0.0 | 0.00 | 0.00 | 0.00 | 82 | 1015.4 |
| 20260508110559 | 70 | 0 | 0.0 | 0.0 | 0.00 | 0.00 | 0.00 | 82 | 1015.3 |
| 20260508110113 | 70 | 0 | 0.0 | 0.0 | 0.00 | 0.00 | 0.00 | 81 | 1015.2 |
| 20260508105602 | 70 | 0 | 0.0 | 0.0 | 0.00 | 0.00 | 0.00 | 81 | 1015.2 |
| 20260508105058 | 70 | 0 | 0.0 | 0.0 | 0.00 | 0.00 | 0.00 | 81 | 1015.1 |
| 20260508104559 | 70 | 0 | 0.0 | 0.0 | 0.00 | 0.00 | 0.00 | 81 | 1015.1 |
| 20260508104058 | 71 | 0 | 0.0 | 0.0 | 0.00 | 0.00 | 0.00 | 80 | 1015.0 |
| 20260508103558 | 71 | 0 | 0.0 | 0.0 | 0.00 | 0.00 | 0.00 | 80 | 1015.0 |
| 20260508103059 | 71 | 0 | 0.0 | 0.0 | 0.00 | 0.00 | 0.00 | 80 | 1014.8 |
| 20260508102558 | 71 | 0 | 0.0 | 0.0 | 0.00 | 0.00 | 0.00 | 80 | 1014.7 |
| 20260508102058 | 71 | 0 | 0.0 | 0.0 | 0.00 | 0.00 | 0.00 | 80 | 1014.7 |
| 20260508101559 | 71 | 0 | 0.0 | 0.0 | 0.00 | 0.00 | 0.00 | 80 | 1014.6 |
| 20260508101057 | 71 | 0 | 0.0 | 0.0 | 0.00 | 0.00 | 0.00 | 80 | 1014.5 |
| 20260508100557 | 71 | 0 | 0.0 | 0.0 | 0.00 | 0.00 | 0.00 | 80 | 1014.5 |
| 20260508100111 | 72 | 0 | 0.0 | 0.0 | 0.00 | 0.00 | 0.00 | 80 | 1014.5 |
| 20260508095557 | 72 | 0 | 0.0 | 0.0 | 0.00 | 0.00 | 0.00 | 80 | 1014.5 |
| 20260508095058 | 72 | 0 | 0.0 | 0.0 | 0.00 | 0.00 | 0.00 | 79 | 1014.4 |
| 20260508094608 | 72 | 0 | 0.0 | 0.0 | 0.00 | 0.00 | 0.00 | 79 | 1014.4 |
| 20260508094057 | 72 | 0 | 0.0 | 0.0 | 0.00 | 0.00 | 0.00 | 79 | 1014.5 |
| 20260508093601 | 72 | 0 | 0.0 | 0.0 | 0.00 | 0.00 | 0.00 | 79 | 1014.4 |
| 20260508093059 | 73 | 0 | 0.0 | 0.0 | 0.00 | 0.00 | 0.00 | 79 | 1014.4 |
| 20260508092557 | 73 | 0 | 0.0 | 0.0 | 0.00 | 0.00 | 0.00 | 79 | 1014.5 |
| 20260508092058 | 73 | 0 | 0.0 | 0.0 | 0.00 | 0.00 | 0.00 | 78 | 1014.4 |
| 20260508091604 | 73 | 0 | 0.0 | 0.0 | 0.00 | 0.00 | 0.00 | 78 | 1014.4 |
| 20260508091058 | 73 | 0 | 0.0 | 0.0 | 0.00 | 0.00 | 0.00 | 78 | 1014.3 |
| 20260508090558 | 73 | 0 | 0.0 | 0.0 | 0.00 | 0.00 | 0.00 | 78 | 1014.3 |
| 20260508090114 | 73 | 0 | 0.0 | 0.0 | 0.00 | 0.00 | 0.00 | 78 | 1014.4 |
| 20260508085557 | 73 | 0 | 0.0 | 0.0 | 0.00 | 0.00 | 0.00 | 78 | 1014.4 |
| 20260508085056 | 73 | 0 | 0.0 | 0.0 | 0.00 | 0.00 | 0.00 | 78 | 1014.4 |
| 20260508084559 | 74 | 0 | 0.0 | 0.0 | 0.00 | 0.00 | 0.00 | 78 | 1014.3 |
| 20260508084058 | 74 | 0 | 0.0 | 0.0 | 0.00 | 0.00 | 0.00 | 78 | 1014.4 |
| 20260508083600 | 74 | 0 | 0.0 | 2.0 | 0.00 | 0.00 | 0.00 | 78 | 1014.4 |
| 20260508083059 | 74 | 0 | 0.0 | 2.0 | 0.00 | 0.00 | 0.00 | 77 | 1014.3 |
| 20260508082557 | 74 | 0 | 0.0 | 0.0 | 0.00 | 0.00 | 0.00 | 77 | 1014.3 |
| 20260508082057 | 74 | 0 | 0.0 | 0.0 | 0.00 | 0.00 | 0.00 | 77 | 1014.2 |
| 20260508081607 | 74 | 0 | 0.0 | 0.0 | 0.00 | 0.00 | 0.00 | 77 | 1014.2 |
| 20260508081057 | 74 | 0 | 0.0 | 0.0 | 0.00 | 0.00 | 0.00 | 77 | 1014.2 |
| 20260508080557 | 74 | 0 | 0.0 | 1.0 | 0.00 | 0.00 | 0.00 | 78 | 1014.3 |
| 20260508080059 | 74 | 0 | 0.0 | 1.0 | 0.00 | 0.00 | 0.00 | 78 | 1014.2 |
| 20260508075558 | 75 | 0 | 0.0 | 0.0 | 0.00 | 0.00 | 0.00 | 78 | 1014.2 |
| 20260508075101 | 75 | 0 | 0.0 | 0.0 | 0.00 | 0.00 | 0.00 | 78 | 1014.1 |
| 20260508074558 | 75 | 0 | 0.0 | 0.0 | 0.00 | 0.00 | 0.00 | 78 | 1014.2 |
| 20260508074057 | 75 | 0 | 0.0 | 0.0 | 0.00 | 0.00 | 0.00 | 78 | 1014.1 |
| 20260508073557 | 75 | 0 | 0.0 | 0.0 | 0.00 | 0.00 | 0.00 | 78 | 1014.1 |
| 20260508073111 | 76 | 0 | 0.0 | 0.0 | 0.00 | 0.00 | 0.00 | 79 | 1014.2 |
| 20260508072557 | 76 | 0 | 0.0 | 0.0 | 0.00 | 0.00 | 0.00 | 79 | 1014.3 |
| 20260508072057 | 76 | 0 | 0.0 | 0.0 | 0.00 | 0.00 | 0.00 | 79 | 1014.3 |
| 20260508071606 | 76 | 0 | 0.0 | 0.0 | 0.00 | 0.00 | 0.00 | 79 | 1014.3 |
| 20260508071058 | 77 | 0 | 0.0 | 0.0 | 0.00 | 0.00 | 0.00 | 79 | 1014.4 |
| 20260508070558 | 77 | 0 | 0.0 | 0.0 | 0.00 | 0.00 | 0.00 | 79 | 1014.3 |
| 20260508070056 | 77 | 0 | 0.0 | 0.0 | 0.00 | 0.00 | 0.00 | 78 | 1014.3 |
| 20260508065558 | 77 | 0 | 0.0 | 0.0 | 0.00 | 0.00 | 0.00 | 78 | 1014.4 |
| 20260508065057 | 77 | 0 | 0.0 | 0.0 | 0.00 | 0.00 | 0.00 | 78 | 1014.2 |
| 20260508064612 | 77 | 0 | 0.0 | 0.0 | 0.00 | 0.00 | 0.00 | 78 | 1014.3 |
| 20260508064057 | 77 | 0 | 0.0 | 0.0 | 0.00 | 0.00 | 0.00 | 78 | 1014.4 |
| 20260508063558 | 77 | 0 | 0.0 | 0.0 | 0.00 | 0.00 | 0.00 | 79 | 1014.4 |
| 20260508063109 | 77 | 0 | 0.0 | 0.0 | 0.00 | 0.00 | 0.00 | 79 | 1014.4 |
| 20260508062558 | 77 | 0 | 0.0 | 1.0 | 0.00 | 0.00 | 0.00 | 79 | 1014.4 |
| 20260508062057 | 78 | 0 | 0.0 | 3.0 | 0.00 | 0.00 | 0.00 | 79 | 1014.5 |
| 20260508061608 | 78 | 0 | 0.0 | 3.0 | 0.00 | 0.00 | 0.00 | 79 | 1014.5 |
| 20260508061059 | 78 | 0 | 0.0 | 0.0 | 0.00 | 0.00 | 0.00 | 79 | 1014.5 |
| 20260508060558 | 78 | 0 | 0.0 | 0.0 | 0.00 | 0.00 | 0.00 | 79 | 1014.6 |
| 20260508060106 | 78 | 0 | 0.0 | 0.0 | 0.00 | 0.00 | 0.00 | 79 | 1014.7 |
| 20260508055557 | 79 | 0 | 0.0 | 0.0 | 0.00 | 0.00 | 0.00 | 79 | 1014.8 |
| 20260508055058 | 79 | 0 | 0.0 | 0.0 | 0.00 | 0.00 | 0.00 | 79 | 1014.9 |
| 20260508054556 | 79 | 0 | 0.0 | 0.0 | 0.00 | 0.00 | 0.00 | 79 | 1014.8 |
| 20260508054059 | 79 | 0 | 0.0 | 0.0 | 0.00 | 0.00 | 0.00 | 79 | 1015.0 |
| 20260508053558 | 79 | 0 | 0.0 | 0.0 | 0.00 | 0.00 | 0.00 | 79 | 1015.0 |
| 20260508053101 | 79 | 0 | 0.0 | 0.0 | 0.00 | 0.00 | 0.00 | 79 | 1015.1 |
| 20260508052559 | 79 | 0 | 0.0 | 0.0 | 0.00 | 0.00 | 0.00 | 79 | 1015.0 |
| 20260508052100 | 80 | 0 | 0.0 | 0.0 | 0.00 | 0.00 | 0.00 | 79 | 1015.0 |
| 20260508051614 | 80 | 0 | 0.0 | 0.0 | 0.00 | 0.00 | 0.00 | 79 | 1015.0 |
| 20260508051058 | 80 | 0 | 0.0 | 0.0 | 0.00 | 0.00 | 0.00 | 79 | 1015.0 |
| 20260508050602 | 80 | 0 | 0.0 | 0.0 | 0.00 | 0.00 | 0.00 | 78 | 1015.1 |
| 20260508050059 | 80 | 0 | 0.0 | 0.0 | 0.00 | 0.00 | 0.00 | 78 | 1015.1 |
| 20260508045558 | 80 | 0 | 0.0 | 3.0 | 0.00 | 0.00 | 0.00 | 78 | 1015.1 |
| 20260508045058 | 80 | 0 | 0.0 | 3.0 | 0.00 | 0.00 | 0.00 | 77 | 1015.1 |
| 20260508044558 | 80 | 0 | 0.0 | 2.0 | 0.00 | 0.00 | 0.00 | 77 | 1015.1 |
| 20260508044059 | 80 | 0 | 0.0 | 2.0 | 0.00 | 0.00 | 0.00 | 77 | 1015.1 |
| 20260508043604 | 80 | 0 | 0.0 | 2.0 | 0.00 | 0.00 | 0.00 | 76 | 1015.2 |
| 20260508043100 | 80 | 0 | 0.0 | 6.0 | 0.00 | 0.00 | 0.00 | 76 | 1015.2 |
| 20260508042557 | 80 | 0 | 1.0 | 6.0 | 0.00 | 0.00 | 0.00 | 76 | 1015.1 |
| 20260508042100 | 80 | 0 | 0.0 | 3.0 | 0.00 | 0.00 | 0.00 | 76 | 1015.1 |
| 20260508041600 | 80 | 0 | 0.0 | 3.0 | 0.00 | 0.00 | 0.00 | 76 | 1015.2 |
| 20260508041058 | 80 | 128 | 0.0 | 3.0 | 0.00 | 0.00 | 0.00 | 76 | 1015.2 |
| 20260508040559 | 80 | 0 | 0.0 | 4.0 | 0.00 | 0.00 | 0.00 | 76 | 1015.2 |
| 20260508040105 | 80 | 127 | 0.0 | 4.0 | 0.00 | 0.00 | 0.00 | 76 | 1015.2 |
| 20260508035600 | 80 | 157 | 0.0 | 3.0 | 0.00 | 0.00 | 0.00 | 76 | 1015.3 |
| 20260508035059 | 80 | 0 | 0.0 | 2.0 | 0.00 | 0.00 | 0.00 | 76 | 1015.3 |
| 20260508034601 | 80 | 0 | 0.0 | 2.0 | 0.00 | 0.00 | 0.00 | 76 | 1015.4 |
| 20260508034100 | 80 | 0 | 0.0 | 2.0 | 0.00 | 0.00 | 0.00 | 76 | 1015.5 |
| 20260508033601 | 80 | 0 | 0.0 | 2.0 | 0.00 | 0.00 | 0.00 | 76 | 1015.4 |
| 20260508033101 | 80 | 0 | 0.0 | 2.0 | 0.00 | 0.00 | 0.00 | 75 | 1015.4 |
| 20260508032601 | 80 | 0 | 0.0 | 3.0 | 0.00 | 0.00 | 0.00 | 76 | 1015.5 |
| 20260508032101 | 80 | 0 | 0.0 | 3.0 | 0.00 | 0.00 | 0.00 | 75 | 1015.5 |
| 20260508031601 | 80 | 146 | 0.0 | 5.0 | 0.00 | 0.00 | 0.00 | 75 | 1015.4 |
| 20260508031101 | 80 | 0 | 0.0 | 6.0 | 0.00 | 0.00 | 0.00 | 75 | 1015.4 |
| 20260508030601 | 80 | 0 | 0.0 | 6.0 | 0.00 | 0.00 | 0.00 | 75 | 1015.5 |
| 20260508030104 | 80 | 0 | 0.0 | 6.0 | 0.00 | 0.00 | 0.00 | 75 | 1015.5 |
| 20260508025601 | 80 | 0 | 0.0 | 4.0 | 0.00 | 0.00 | 0.00 | 75 | 1015.4 |
| 20260508025100 | 80 | 0 | 0.0 | 4.0 | 0.00 | 0.00 | 0.00 | 75 | 1015.4 |
| 20260508024619 | 80 | 0 | 0.0 | 4.0 | 0.00 | 0.00 | 0.00 | 75 | 1015.3 |
| 20260508024059 | 80 | 0 | 0.0 | 3.0 | 0.00 | 0.00 | 0.00 | 75 | 1015.3 |
| 20260508023559 | 80 | 0 | 0.0 | 2.0 | 0.00 | 0.00 | 0.00 | 74 | 1015.4 |
| 20260508023101 | 81 | 0 | 0.0 | 2.0 | 0.00 | 0.00 | 0.00 | 74 | 1015.4 |
| 20260508022601 | 81 | 0 | 0.0 | 2.0 | 0.00 | 0.00 | 0.00 | 74 | 1015.4 |
| 20260508022136 | 81 | 0 | 0.0 | 0.0 | 0.00 | 0.00 | 0.00 | 74 | 1015.4 |
| 20260508021606 | 81 | 0 | 0.0 | 1.0 | 0.00 | 0.00 | 0.00 | 74 | 1015.2 |
| 20260508021058 | 81 | 0 | 0.0 | 2.0 | 0.00 | 0.00 | 0.00 | 74 | 1015.3 |
| 20260508020601 | 81 | 0 | 0.0 | 2.0 | 0.00 | 0.00 | 0.00 | 74 | 1015.3 |
| 20260508020130 | 81 | 0 | 0.0 | 1.0 | 0.00 | 0.00 | 0.00 | 74 | 1015.2 |
| 20260508015557 | 81 | 0 | 0.0 | 2.0 | 0.00 | 0.00 | 0.00 | 73 | 1015.3 |
| 20260508015101 | 81 | 0 | 0.0 | 3.0 | 0.00 | 0.00 | 0.00 | 73 | 1015.2 |
| 20260508014601 | 81 | 0 | 0.0 | 4.0 | 0.00 | 0.00 | 0.00 | 73 | 1015.2 |
| 20260508014059 | 81 | 0 | 0.0 | 4.0 | 0.00 | 0.00 | 0.00 | 73 | 1015.2 |
| 20260508013600 | 81 | 0 | 0.0 | 4.0 | 0.00 | 0.00 | 0.00 | 73 | 1015.3 |
| 20260508013100 | 81 | 0 | 0.0 | 4.0 | 0.00 | 0.00 | 0.00 | 73 | 1015.2 |
| 20260508012559 | 81 | 0 | 0.0 | 5.0 | 0.00 | 0.00 | 0.00 | 72 | 1015.2 |
| 20260508012059 | 81 | 0 | 0.0 | 5.0 | 0.00 | 0.00 | 0.00 | 72 | 1015.2 |
| 20260508011606 | 81 | 144 | 0.0 | 3.0 | 0.00 | 0.00 | 0.00 | 72 | 1015.2 |
| 20260508011058 | 81 | 0 | 0.0 | 6.0 | 0.00 | 0.00 | 0.00 | 72 | 1015.2 |
| 20260508010558 | 81 | 0 | 0.0 | 6.0 | 0.00 | 0.00 | 0.00 | 72 | 1015.0 |
| 20260508010101 | 81 | 39 | 0.0 | 6.0 | 0.00 | 0.00 | 0.00 | 72 | 1015.0 |
| 20260508005558 | 82 | 132 | 1.0 | 5.0 | 0.00 | 0.00 | 0.00 | 72 | 1015.0 |
| 20260508005058 | 82 | 123 | 0.0 | 7.0 | 0.00 | 0.00 | 0.00 | 71 | 1015.0 |
| 20260508004602 | 82 | 123 | 1.0 | 7.0 | 0.00 | 0.00 | 0.00 | 71 | 1014.9 |
| 20260508004101 | 82 | 157 | 1.0 | 7.0 | 0.00 | 0.00 | 0.00 | 71 | 1014.9 |
| 20260508003558 | 82 | 134 | 0.0 | 5.0 | 0.00 | 0.00 | 0.00 | 71 | 1014.8 |
| 20260508003100 | 82 | 0 | 1.0 | 5.0 | 0.00 | 0.00 | 0.00 | 71 | 1015.0 |
| 20260508002600 | 82 | 136 | 0.0 | 5.0 | 0.00 | 0.00 | 0.00 | 70 | 1015.0 |
| 20260508002059 | 82 | 192 | 0.0 | 5.0 | 0.00 | 0.00 | 0.00 | 70 | 1014.9 |
| 20260508001600 | 82 | 119 | 1.0 | 8.0 | 0.00 | 0.00 | 0.00 | 70 | 1014.9 |
| 20260508001101 | 82 | 0 | 0.0 | 8.0 | 0.00 | 0.00 | 0.00 | 70 | 1014.8 |
| 20260508000558 | 83 | 0 | 0.0 | 3.0 | 0.00 | 0.00 | 0.00 | 70 | 1014.7 |
| 20260508000058 | 83 | 0 | 0.0 | 5.0 | 0.00 | 0.00 | 0.00 | 70 | 1014.5 |
| 20260507235557 | 83 | 0 | 0.0 | 7.0 | 0.00 | 0.00 | 0.00 | 69 | 1014.5 |
| 20260507235057 | 83 | 0 | 0.0 | 7.0 | 0.00 | 0.00 | 0.00 | 68 | 1014.5 |
| 20260507234600 | 83 | 0 | 1.0 | 5.0 | 0.00 | 0.00 | 0.00 | 68 | 1014.4 |
| 20260507234101 | 84 | 0 | 0.0 | 5.0 | 0.00 | 0.00 | 0.00 | 67 | 1014.4 |
| 20260507233558 | 84 | 142 | 0.0 | 6.0 | 0.00 | 0.00 | 0.00 | 66 | 1014.3 |
| 20260507233102 | 84 | 0 | 1.0 | 6.0 | 0.00 | 0.00 | 0.00 | 65 | 1014.4 |
| 20260507232600 | 85 | 0 | 1.0 | 5.0 | 0.00 | 0.00 | 0.00 | 65 | 1014.4 |
| 20260507232102 | 85 | 0 | 0.0 | 7.0 | 0.00 | 0.00 | 0.00 | 63 | 1014.3 |
| 20260507231601 | 85 | 0 | 1.0 | 7.0 | 0.00 | 0.00 | 0.00 | 61 | 1014.2 |
| 20260507231059 | 86 | 120 | 0.0 | 6.0 | 0.00 | 0.00 | 0.00 | 60 | 1014.3 |
| 20260507230600 | 86 | 0 | 0.0 | 7.0 | 0.00 | 0.00 | 0.00 | 57 | 1014.2 |
| 20260507230111 | 87 | 103 | 2.0 | 7.0 | 0.00 | 0.00 | 0.00 | 57 | 1014.2 |
| 20260507225558 | 87 | 0 | 1.0 | 6.0 | 0.00 | 0.00 | 0.00 | 56 | 1014.1 |
| 20260507225100 | 88 | 0 | 1.0 | 5.0 | 0.00 | 0.00 | 0.00 | 53 | 1014.1 |
| 20260507224600 | 88 | 152 | 0.0 | 5.0 | 0.00 | 0.00 | 0.00 | 53 | 1014.2 |
| 20260507224101 | 88 | 0 | 0.0 | 5.0 | 0.00 | 0.00 | 0.00 | 57 | 1014.1 |
| 20260507223601 | 88 | 227 | 0.0 | 4.0 | 0.00 | 0.00 | 0.00 | 56 | 1014.1 |
| 20260507223101 | 88 | 0 | 0.0 | 5.0 | 0.00 | 0.00 | 0.00 | 55 | 1014.2 |
| 20260507222559 | 88 | 0 | 0.0 | 7.0 | 0.00 | 0.00 | 0.00 | 57 | 1014.1 |
| 20260507222102 | 88 | 0 | 1.0 | 9.0 | 0.00 | 0.00 | 0.00 | 58 | 1014.2 |
| 20260507221600 | 88 | 187 | 1.0 | 9.0 | 0.00 | 0.00 | 0.00 | 56 | 1014.1 |
| 20260507221058 | 89 | 179 | 1.0 | 7.0 | 0.00 | 0.00 | 0.00 | 54 | 1014.1 |
| 20260507220601 | 89 | 199 | 1.0 | 7.0 | 0.00 | 0.00 | 0.00 | 54 | 1014.1 |
| 20260507220100 | 89 | 160 | 1.0 | 9.0 | 0.00 | 0.00 | 0.00 | 53 | 1014.1 |
| 20260507215600 | 89 | 180 | 1.0 | 9.0 | 0.00 | 0.00 | 0.00 | 53 | 1014.0 |
| 20260507215057 | 89 | 234 | 1.0 | 7.0 | 0.00 | 0.00 | 0.00 | 50 | 1014.0 |
| 20260507214558 | 90 | 0 | 0.0 | 8.0 | 0.00 | 0.00 | 0.00 | 51 | 1014.0 |
| 20260507214100 | 90 | 190 | 1.0 | 8.0 | 0.00 | 0.00 | 0.00 | 50 | 1013.9 |
| 20260507213601 | 90 | 192 | 1.0 | 9.0 | 0.00 | 0.00 | 0.00 | 52 | 1013.9 |
| 20260507213059 | 90 | 0 | 1.0 | 9.0 | 0.00 | 0.00 | 0.00 | 52 | 1014.0 |
| 20260507212557 | 90 | 296 | 1.0 | 6.0 | 0.00 | 0.00 | 0.00 | 51 | 1014.1 |
| 20260507212059 | 91 | 0 | 1.0 | 6.0 | 0.00 | 0.00 | 0.00 | 51 | 1014.1 |
| 20260507211604 | 91 | 269 | 0.0 | 6.0 | 0.00 | 0.00 | 0.00 | 51 | 1014.1 |
| 20260507211057 | 91 | 0 | 1.0 | 6.0 | 0.00 | 0.00 | 0.00 | 49 | 1014.2 |
| 20260507210601 | 91 | 234 | 1.0 | 6.0 | 0.00 | 0.00 | 0.00 | 52 | 1014.2 |
| 20260507210111 | 91 | 325 | 2.0 | 6.0 | 0.00 | 0.00 | 0.00 | 52 | 1014.2 |
| 20260507205558 | 91 | 220 | 1.0 | 7.0 | 0.00 | 0.00 | 0.00 | 52 | 1014.1 |
| 20260507205059 | 91 | 0 | 1.0 | 9.0 | 0.00 | 0.00 | 0.00 | 49 | 1014.1 |
| 20260507204601 | 90 | 92 | 3.0 | 9.0 | 0.00 | 0.00 | 0.00 | 52 | 1014.2 |
| 20260507204104 | 91 | 286 | 2.0 | 9.0 | 0.00 | 0.00 | 0.00 | 48 | 1014.3 |
| 20260507203601 | 91 | 223 | 2.0 | 9.0 | 0.00 | 0.00 | 0.00 | 50 | 1014.2 |
| 20260507203129 | 91 | 133 | 1.0 | 10.0 | 0.00 | 0.00 | 0.00 | 51 | 1014.3 |
| 20260507202559 | 91 | 165 | 1.0 | 10.0 | 0.00 | 0.00 | 0.00 | 51 | 1014.3 |
| 20260507202058 | 91 | 84 | 2.0 | 8.0 | 0.00 | 0.00 | 0.00 | 54 | 1014.3 |
| 20260507201559 | 91 | 254 | 1.0 | 10.0 | 0.00 | 0.00 | 0.00 | 53 | 1014.5 |
| 20260507201100 | 91 | 46 | 2.0 | 10.0 | 0.00 | 0.00 | 0.00 | 54 | 1014.4 |
| 20260507200604 | 91 | 158 | 1.0 | 12.0 | 0.00 | 0.00 | 0.00 | 52 | 1014.5 |
| 20260507195557 | 92 | 126 | 3.0 | 12.0 | 0.00 | 0.00 | 0.00 | 54 | 1014.6 |
| 20260507195102 | 92 | 209 | 1.0 | 7.0 | 0.00 | 0.00 | 0.00 | 53 | 1014.7 |
| 20260507194619 | 92 | 164 | 1.0 | 7.0 | 0.00 | 0.00 | 0.00 | 56 | 1014.7 |
| 20260507194100 | 92 | 144 | 1.0 | 8.0 | 0.00 | 0.00 | 0.00 | 56 | 1014.8 |
| 20260507193559 | 92 | 67 | 1.0 | 8.0 | 0.00 | 0.00 | 0.00 | 57 | 1014.8 |
| 20260507193106 | 92 | 0 | 3.0 | 8.0 | 0.00 | 0.00 | 0.00 | 54 | 1014.9 |
| 20260507192559 | 93 | 115 | 1.0 | 8.0 | 0.00 | 0.00 | 0.00 | 54 | 1014.9 |
| 20260507192058 | 93 | 127 | 1.0 | 8.0 | 0.00 | 0.00 | 0.00 | 55 | 1014.9 |
| 20260507191559 | 93 | 170 | 1.0 | 8.0 | 0.00 | 0.00 | 0.00 | 56 | 1015.0 |
| 20260507191058 | 92 | 209 | 2.0 | 8.0 | 0.00 | 0.00 | 0.00 | 55 | 1015.0 |
| 20260507190559 | 93 | 270 | 0.0 | 7.0 | 0.00 | 0.00 | 0.00 | 55 | 1015.1 |
| 20260507185559 | 92 | 0 | 2.0 | 7.0 | 0.00 | 0.00 | 0.00 | 56 | 1015.0 |
| 20260507185059 | 92 | 120 | 1.0 | 7.0 | 0.00 | 0.00 | 0.00 | 55 | 1015.2 |
| 20260507184558 | 92 | 0 | 1.0 | 8.0 | 0.00 | 0.00 | 0.00 | 56 | 1015.3 |
| 20260507184100 | 92 | 94 | 1.0 | 8.0 | 0.00 | 0.00 | 0.00 | 55 | 1015.5 |
| 20260507183558 | 92 | 0 | 2.0 | 8.0 | 0.00 | 0.00 | 0.00 | 56 | 1015.5 |
| 20260507183100 | 92 | 186 | 2.0 | 11.0 | 0.00 | 0.00 | 0.00 | 55 | 1015.6 |